Powrót do katalogu

CZ-6A DEB

AktywnyPO
NORAD 60860·DEBRIS·🇨🇳 China

Wystrzelony Aug 6, 2024 z Taiyuan Satellite Launch Center

Loading…

Następne Przeloty (najbliższe 24 godziny)

TLE

ŚwieżeSource: Space-Track

Epoka: Sep 14, 2026, 17:56 UTC

1 60860U 24140JP  26257.74764337  .00000183  00000-0  86555-4 0  9999
2 60860  89.0431 269.6517 0064996 269.9316  89.4423 14.14526317107476

Śledź CZ-6A DEB w czasie rzeczywistym z AllMySat

Download on the App Store